[[[{"header":{"parameterUnit":"kt","parameterCategory":2,"dx":1,"dy":1,"la1":30.253999710083008,"la2":30.299108505249023,"lo1":-89.0895004272461,"lo2":-89.04439544677734,"nx":28,"ny":28,"refTime":"2022-10-07T21:00:00:Z","depth":0,"parameterNumber":1,"parameterNumberName":"U-component_of_WINDS"},"data":[-5.1015,-5.1147,-5.1112,-5.1247,-5.1238,-5.1325,-5.1345,-5.1366,-5.1374,-5.1473,-5.1523,-5.1501,-5.1495,-5.1547,-5.1599,-5.1588,-5.1615,-5.1687,-5.1662,-5.1369,-5.1327,-5.1286,-5.1253,-5.1692,-5.1693,-5.1971,-5.1974,-5.1976,-5.0802,-5.0795,-5.0856,-5.0892,-5.0944,-5.0852,-5.0873,-5.0923,-5.1003,-5.1013,-5.1061,-5.1145,-5.1206,-5.1175,-5.1228,-5.129,-5.1251,-5.1307,-5.1304,-5.1305,-5.099,-5.0955,-5.1337,-5.1337,-5.1337,-5.1337,-5.1337,-5.1337,-5.0407,-5.0488,-5.0489,-5.0554,-5.0562,-5.0586,-5.0657,-5.0628,-5.0687,-5.0739,-5.0684,-5.0774,-5.0778,-5.0824,-5.0831,-5.09,-5.0831,-5.0882,-5.0896,-5.0911,-5.0933,-5.054,-5.0907,-5.0905,-5.0904,-5.0903,-5.0902,0,-5.0108,-5.0073,-5.0129,-5.0175,-5.022,-5.0252,-5.0276,-5.0318,-5.0231,-5.0284,-5.0357,-5.0394,-5.0465,-5.053,-5.0572,-5.0568,-5.0481,-5.0467,-5.0502,-5.0533,-5.0554,-5.0548,-5.0039,-5.0458,-5.0454,-5.0451,-5.0449,-5.0447,-4.971,-4.9807,-4.979,-4.9834,-4.9838,-4.9911,-4.9946,-4.9862,-4.9904,-4.992,-4.9996,-5.0059,-5.0106,-5.0229,-5.0194,-5.0248,-5.0207,-5.0371,-5.0215,-5.0238,-5.0213,-5.021,-5.022,-5.0405,-5.041,-5.0415,-5.0418,0,-4.9489,-4.943,-4.957,-4.9543,-4.9539,-4.9647,-4.9624,-4.97,-4.9663,-4.9764,-4.9782,-4.9725,-4.9799,-4.9736,-4.9807,-4.9773,-4.995,-4.9906,-4.9948,-4.9937,-5.008,-5.0069,-5.055,-5.0609,-5.015,-5.0154,-5.0158,0,-4.9128,-4.926,-4.9164,-4.9249,-4.9391,-4.9303,-4.9447,-4.9429,-4.9431,-4.9509,-4.9398,-4.9475,-4.9382,-4.945,-4.9399,-4.9532,-4.9544,-4.9527,-4.9513,-4.954,-4.9542,-4.9564,-4.9545,-4.9472,-4.947,-4.9468,-4.9466,0,-4.8792,-4.8894,-4.903,-4.9044,-4.9029,-4.9095,-4.9092,-4.9092,-4.9129,-4.9165,-4.9188,-4.9237,-4.9265,-4.9304,-4.9239,-4.9136,-4.9399,-4.9243,-4.9382,-4.9384,-4.9447,-4.9445,-4.9882,-4.9463,-4.9462,-4.9462,-4.9461,0,-4.8493,-4.8531,-4.8736,-4.8721,-4.8752,-4.8841,-4.8883,-4.8945,-4.8954,-4.8927,-4.8955,-4.8875,-4.8983,-4.8834,-4.8983,-4.8867,-4.8901,-4.8893,-4.8901,-4.8911,-4.8747,-4.9006,-4.9425,-4.9469,-4.8915,-4.891,-4.8906,0,-4.8126,-4.8317,-4.8243,-4.844,-4.852,-4.839,-4.8487,-4.8498,-4.8471,-4.8534,-4.8503,-4.8577,-4.8452,-4.8466,-4.8547,-4.852,-4.8671,-4.8497,-4.8594,-4.8598,-4.8599,-4.8983,-4.9063,-4.9339,-4.8847,-4.8853,-4.8858,0,-4.7835,-4.7816,-4.7856,-4.7869,-4.7869,-4.7935,-4.8046,-4.8099,-4.8146,-4.8169,-4.8262,-4.8362,-4.8273,-4.8298,-4.8238,-4.8327,-4.8566,-4.8219,-4.8218,-4.8287,-4.8811,-4.8887,-4.8934,-4.8506,-4.8513,-4.8519,-4.8811,0,-4.7402,-4.7489,-4.7594,-4.7626,-4.7666,-4.7785,-4.7719,-4.777,-4.7707,-4.7676,-4.781,-4.7803,-4.7859,-4.7893,-4.7834,-4.8055,-4.8009,-4.7913,-4.7766,-4.8017,-4.8112,-4.8151,-4.763,-4.7625,-4.7621,-4.7618,0,0,-4.7068,-4.7191,-4.7106,-4.7211,-4.7241,-4.7105,-4.7239,-4.7251,-4.7281,-4.7305,-4.7221,-4.7364,-4.7363,-4.7533,-4.7606,-4.7627,-4.7662,-4.7577,-4.7898,-4.7929,-4.7958,-4.8061,-4.8102,-4.7611,-4.7609,-4.7608,-4.7607,0,-4.6897,-4.6896,-4.7028,-4.7037,-4.7047,-4.7007,-4.7039,-4.7026,-4.7012,-4.7141,-4.703,-4.7102,-4.7218,-4.7232,-4.7255,-4.7553,-4.7467,-4.7574,-4.7758,-4.7859,-4.7896,-4.7929,-4.8037,-4.8077,-4.7597,-4.7598,-4.7598,0,-4.6601,-4.659,-4.6646,-4.6705,-4.6711,-4.6796,-4.6624,-4.6721,-4.6784,-4.6632,-4.6764,-4.6752,-4.6765,-4.6933,-4.7006,-4.6933,-4.7293,-4.7167,-4.719,-4.7198,-4.7293,-4.7337,-4.7377,-4.6858,-4.6856,-4.6854,0,0,-4.6462,-4.6542,-4.6505,-4.6663,-4.6675,-4.6617,-4.6655,-4.6598,-4.6611,-4.6618,-4.6601,-4.6618,-4.6684,-4.6731,-4.6789,-4.6983,-4.698,-4.7078,-4.7113,-4.7142,-4.7166,-4.7268,-4.7312,-4.6845,-4.6845,-4.6845,0,0,-4.6396,-4.6359,-4.6294,-4.6469,-4.6486,-4.6461,-4.6561,-4.648,-4.6527,-4.6506,-4.6414,-4.6415,-4.657,-4.6563,-4.6454,-4.6737,-4.6592,-4.6616,-4.6736,-4.6779,-4.6813,-4.6814,-4.628,0,0,0,0,0,-4.6187,-4.6363,-4.6304,-4.6324,-4.6399,-4.6493,-4.6502,-4.643,-4.6329,-4.6409,-4.6382,-4.6285,-4.6485,-4.6387,-4.6408,-4.6532,-4.6733,-4.6753,-4.6772,-4.6971,-4.7017,-4.7056,0,0,0,0,0,0,-4.6194,-4.6219,-4.6299,-4.6283,-4.6299,-4.6486,-4.6299,-4.6284,-4.6318,-4.6298,-4.6294,-4.6285,-4.6226,-4.6371,-4.6391,-4.651,-4.6273,-4.6741,-4.6758,-4.6773,-4.6987,-4.7024,-4.7057,0,0,0,0,0,-4.62,-4.6219,-4.6358,-4.628,-4.6294,-4.6239,-4.6292,-4.6278,-4.6303,-4.6262,-4.625,-4.6245,-4.6231,-4.6243,-4.6383,-4.6503,-4.6258,-4.6266,-4.6752,-4.6765,-4.6777,-4.7005,0,0,0,0,0,0,-4.6203,-4.6207,-4.6359,-4.636,-4.6208,-4.6227,-4.6228,-4.6273,-4.6263,-4.6254,-4.6208,-4.6192,-4.6237,-4.6245,-4.6255,-4.6505,-4.6246,-4.6254,-4.6259,-4.6762,-4.6772,-4.6782,0,0,0,0,0,0,-4.6196,-4.6209,-4.636,-4.6273,-4.6264,-4.6217,-4.6217,-4.6325,-4.6265,-4.6209,-4.6196,-4.6201,-4.6222,-4.6248,-4.6255,-4.6426,-4.6237,-4.6245,-4.625,-4.6254,-4.6771,-4.6779,0,0,0,0,0,0,-4.62,-4.6212,-4.6272,-4.6265,-4.6257,-4.6269,-4.6311,-4.6392,-4.619,-4.6212,-4.617,-4.616,-4.6228,-4.6233,-4.6256,-4.6425,-4.6426,-4.6238,-4.6243,-4.6246,-4.6249,0,0,0,0,0,0,0,-4.6204,-4.6145,-4.635,-4.6259,-4.6251,-4.6375,-4.6375,-4.6376,-4.6188,-4.618,-4.6172,-4.6164,-4.6194,-4.6202,-4.6211,-4.6423,0,0,-4.6237,-4.624,0,0,0,0,0,0,0,0,-4.6138,-4.6143,-4.635,-4.635,-4.635,-4.6375,-4.6375,-4.6376,-4.6186,-4.618,-4.6173,-4.6167,-4.6196,-4.6203,-4.621,0,0,0,0,0,0,0,0,0,0,0,0,0,0,0,-4.635,-4.635,0,-4.6375,-4.6375,-4.6375,-4.6186,-4.618,-4.6175,-4.617,-4.6198,-4.6203,-4.6209,0,0,0,0,0,0,0,0,0,0,0,0,0,0,0,0,0,0,0,0,0,0,0,0,0,0,0,0,0,0,0,0,0,0,0,0,0,0,0,0,0,0,0,0,0,0,0,0,0,0,0,0,0,0,0,0,0,0,0,0,0,0,0,0,0,0,0,0,0]}],[{"header":{"parameterUnit":"kt","parameterCategory":2,"dx":1,"dy":1,"la1":30.253999710083008,"la2":30.299108505249023,"lo1":-89.0895004272461,"lo2":-89.04439544677734,"nx":28,"ny":28,"refTime":"2022-10-07T21:00:00:Z","depth":0,"parameterNumber":2,"parameterNumberName":"V-component_of_WINDS"},"data":[-12.2024,-12.224,-12.2232,-12.2472,-12.2504,-12.2666,-12.272,-12.2787,-12.2838,-12.3025,-12.3129,-12.3138,-12.318,-12.3298,-12.3407,-12.3407,-12.3454,-12.3538,-12.3523,-12.3162,-12.3111,-12.3062,-12.3012,-12.3549,-12.3549,-12.3899,-12.3903,-12.3905,-12.1759,-12.1795,-12.1921,-12.2036,-12.2142,-12.2056,-12.2138,-12.2231,-12.2375,-12.2439,-12.2541,-12.2703,-12.2827,-12.284,-12.2956,-12.3052,-12.3015,-12.3084,-12.3076,-12.3084,-12.2697,-12.2644,-12.3111,-12.3111,-12.3111,-12.3111,-12.3111,-12.3111,-12.1275,-12.1406,-12.147,-12.1606,-12.166,-12.1736,-12.1856,-12.1865,-12.1984,-12.2109,-12.207,-12.2231,-12.2289,-12.2421,-12.2462,-12.2584,-12.2505,-12.2574,-12.2592,-12.261,-12.2633,-12.2129,-12.2602,-12.2601,-12.26,-12.2598,-12.2597,0,-12.0918,-12.0902,-12.1021,-12.1139,-12.1236,-12.1324,-12.1402,-12.1476,-12.1432,-12.1531,-12.1673,-12.1752,-12.1906,-12.2035,-12.214,-12.2166,-12.2082,-12.2072,-12.2119,-12.2142,-12.2148,-12.2147,-12.1517,-12.2058,-12.2053,-12.205,-12.2047,-12.2045,-12.0429,-12.0582,-12.0644,-12.0728,-12.0769,-12.0906,-12.0984,-12.0934,-12.1019,-12.1104,-12.1219,-12.1348,-12.1449,-12.1673,-12.1676,-12.1789,-12.1749,-12.1957,-12.1765,-12.178,-12.1752,-12.1744,-12.1758,-12.1995,-12.2002,-12.2007,-12.2011,0,-12.0154,-12.0138,-12.037,-12.0415,-12.043,-12.0591,-12.0627,-12.0752,-12.0745,-12.0915,-12.0951,-12.094,-12.1078,-12.1047,-12.1196,-12.1175,-12.1433,-12.1391,-12.1413,-12.1403,-12.1586,-12.1569,-12.2186,-12.2263,-12.1706,-12.1712,-12.1716,0,-11.973,-11.9931,-11.9894,-12.003,-12.0251,-12.0196,-12.0414,-12.043,-12.048,-12.0614,-12.0515,-12.0642,-12.0582,-12.0703,-12.0672,-12.0877,-12.0905,-12.09,-12.089,-12.091,-12.0911,-12.0951,-12.0926,-12.086,-12.0857,-12.0854,-12.0851,0,-11.9302,-11.9517,-11.9738,-11.9783,-11.985,-11.9953,-11.9985,-12.004,-12.0116,-12.0209,-12.0257,-12.0368,-12.0429,-12.0515,-12.0475,-12.0346,-12.0724,-12.0538,-12.072,-12.0721,-12.0805,-12.0801,-12.1355,-12.0847,-12.0847,-12.0846,-12.0844,0,-11.8956,-11.9057,-11.9379,-11.9431,-11.9489,-11.9633,-11.9741,-11.9857,-11.9921,-11.9912,-11.9984,-11.9914,-12.0091,-11.9909,-12.0151,-11.9995,-12.0059,-12.0071,-12.0083,-12.0097,-11.9894,-12.0211,-12.0742,-12.0796,-12.011,-12.0103,-12.0098,0,-11.847,-11.8791,-11.8747,-11.9052,-11.9196,-11.9077,-11.9234,-11.9295,-11.9296,-11.9415,-11.9413,-11.9548,-11.9406,-11.9443,-11.9567,-11.957,-11.9773,-11.9542,-11.9708,-11.9715,-11.9696,-12.0184,-12.0272,-12.0629,-12.0019,-12.0027,-12.0033,0,-11.8091,-11.8173,-11.8231,-11.828,-11.8355,-11.8474,-11.8655,-11.8778,-11.886,-11.8938,-11.9087,-11.9274,-11.9174,-11.9237,-11.9191,-11.9322,-11.9634,-11.9196,-11.9197,-11.9276,-11.9977,-12.0059,-12.0119,-11.9573,-11.9582,-11.959,-11.9971,0,-11.7573,-11.7731,-11.7886,-11.8,-11.8087,-11.8276,-11.8247,-11.8341,-11.8289,-11.8285,-11.8503,-11.8543,-11.8664,-11.8724,-11.8673,-11.8984,-11.8926,-11.8818,-11.8638,-11.8959,-11.9083,-11.9134,-11.8455,-11.8449,-11.8445,-11.8441,0,0,-11.7112,-11.7338,-11.7283,-11.7459,-11.7529,-11.7402,-11.7607,-11.7659,-11.7768,-11.7818,-11.7717,-11.7989,-11.8025,-11.8292,-11.8389,-11.8439,-11.849,-11.8379,-11.8806,-11.8847,-11.8885,-11.9019,-11.9072,-11.8433,-11.8431,-11.8429,-11.8428,0,-11.6917,-11.6964,-11.7169,-11.7222,-11.7298,-11.7285,-11.7334,-11.7386,-11.7393,-11.7607,-11.7496,-11.7622,-11.784,-11.7893,-11.7949,-11.8347,-11.8255,-11.8386,-11.8612,-11.8761,-11.8808,-11.8849,-11.899,-11.9042,-11.8417,-11.8417,-11.8418,0,-11.6539,-11.6579,-11.6675,-11.6831,-11.6878,-11.7028,-11.6833,-11.6999,-11.7108,-11.6956,-11.7171,-11.7188,-11.7255,-11.7513,-11.7626,-11.7538,-11.8042,-11.7877,-11.7905,-11.7917,-11.8059,-11.8116,-11.8166,-11.7502,-11.7498,-11.7496,0,0,-11.6373,-11.652,-11.6546,-11.6786,-11.6824,-11.6808,-11.6884,-11.684,-11.6906,-11.6933,-11.6953,-11.7019,-11.7144,-11.7228,-11.7344,-11.7631,-11.7639,-11.7765,-11.7809,-11.7844,-11.7875,-11.8027,-11.8083,-11.7484,-11.7484,-11.7484,0,0,-11.6293,-11.6335,-11.6271,-11.6547,-11.6616,-11.6654,-11.6801,-11.6723,-11.6825,-11.6799,-11.6729,-11.6744,-11.6983,-11.7004,-11.6855,-11.7279,-11.7101,-11.7136,-11.7257,-11.7311,-11.7353,-11.7343,-11.6657,0,0,0,0,0,-11.6079,-11.6329,-11.6272,-11.6314,-11.6507,-11.6687,-11.6711,-11.6661,-11.6537,-11.6654,-11.6658,-11.6555,-11.6909,-11.6775,-11.6815,-11.6982,-11.7336,-11.7363,-11.7387,-11.761,-11.7667,-11.7715,0,0,0,0,0,0,-11.6095,-11.6146,-11.6265,-11.6316,-11.6359,-11.6677,-11.6456,-11.6449,-11.6523,-11.6501,-11.6557,-11.6557,-11.6515,-11.675,-11.6788,-11.6948,-11.6644,-11.7347,-11.7369,-11.7389,-11.7629,-11.7676,-11.7716,0,0,0,0,0,-11.6107,-11.6148,-11.6473,-11.6312,-11.6349,-11.6343,-11.6446,-11.6439,-11.6495,-11.6502,-11.6498,-11.6451,-11.6521,-11.6549,-11.6772,-11.6932,-11.6618,-11.6632,-11.7361,-11.7379,-11.7394,-11.7652,0,0,0,0,0,0,-11.6116,-11.6141,-11.6479,-11.6489,-11.6214,-11.6324,-11.634,-11.643,-11.649,-11.6489,-11.639,-11.6372,-11.6528,-11.6548,-11.657,-11.693,-11.6597,-11.6611,-11.662,-11.7374,-11.7388,-11.74,0,0,0,0,0,0,-11.6119,-11.6151,-11.6484,-11.6363,-11.6358,-11.6307,-11.6321,-11.6502,-11.6492,-11.6374,-11.6361,-11.6382,-11.6494,-11.655,-11.6566,-11.6852,-11.6581,-11.6594,-11.6604,-11.661,-11.7386,-11.7396,0,0,0,0,0,0,-11.6131,-11.6158,-11.636,-11.6357,-11.6352,-11.6452,-11.6465,-11.6666,-11.6393,-11.6373,-11.6366,-11.6354,-11.6498,-11.6513,-11.6564,-11.6843,-11.6849,-11.6581,-11.659,-11.6597,-11.6601,0,0,0,0,0,0,0,-11.6141,-11.5972,-11.6425,-11.6351,-11.6346,-11.6575,-11.6577,-11.658,-11.639,-11.638,-11.6369,-11.6359,-11.6502,-11.6517,-11.6532,-11.6837,0,0,-11.658,-11.6586,0,0,0,0,0,0,0,0,-11.596,-11.5969,-11.6425,-11.6427,-11.6429,-11.6575,-11.6577,-11.6579,-11.6388,-11.638,-11.6371,-11.6363,-11.6506,-11.6518,-11.6531,0,0,0,0,0,0,0,0,0,0,0,0,0,0,0,-11.6425,-11.6427,0,-11.6576,-11.6577,-11.6579,-11.6387,-11.638,-11.6373,-11.6367,-11.651,-11.652,-11.653,0,0,0,0,0,0,0,0,0,0,0,0,0,0,0,0,0,0,0,0,0,0,0,0,0,0,0,0,0,0,0,0,0,0,0,0,0,0,0,0,0,0,0,0,0,0,0,0,0,0,0,0,0,0,0,0,0,0,0,0,0,0,0,0,0,0,0,0,0]}]]]